RH
86 97 96 94 96 99 94 96 94 68 40 83 60 61 65 62 65 65 73 85 86 81 89 77 80 77 62 86 94 90 94 72 72 84 74 51 50 53 50 35 34 36 32 32 32 30 28
94 97 94 95 96 94 93 95 99 59 35 43 54 57 62 63 55 58 61 67 67 70 67 68 65 59 63 94 84 81 68 68 68 61 44 40 46 44 33 32 35 35 36 32 33 29 29
97 90 90 94 94 99 99 96 100 81 34 34 43 50 54 61 56 55 54 52 54 52 60 49 45 45 61 72 52 58 59 49 39 39 42 36 33 28 30 38 34 38 40 38 36 29 26
96 98 94 96 96 95 98 97 95 95 40 31 33 38 42 46 56 60 51 48 48 49 50 44 41 40 61 50 55 48 56 40 35 35 37 25 26 29 31 33 33 33 40 49 34 36 22
100 97 97 95 97 96 95 98 77 59 43 40 34 31 37 39 43 49 48 47 44 37 44 40 36 40 56 46 49 38 36 39 29 26 24 23 25 34 33 47 46 36 54 45 38 30 28
99 99 98 99 95 96 97 96 96 47 45 45 44 36 30 35 37 41 43 43 38 36 36 40 35 47 45 48 38 32 30 29 29 31 30 30 40 45 45 54 52 39 46 38 43 36 30
99 99 99 98 99 96 96 96 97 59 35 40 43 45 34 30 41 38 38 46 66 56 43 55 50 53 44 36 38 38 34 29 25 26 35 35 56 63 40 32 26 31 35 48 43 36 33
99 98 99 100 100 99 96 96 96 88 36 31 36 42 43 29 37 42 43 69 75 70 57 44 44 43 38 37 48 43 33 29 31 38 38 48 49 40 45 35 34 28 44 43 37 34 28
99 99 99 98 87 80 79 96 98 75 43 30 30 38 44 29 34 36 46 62 57 63 56 45 39 46 44 38 50 48 43 40 40 46 48 52 37 38 38 52 40 50 41 38 39 37 34
93 99 96 78 76 74 74 70 98 97 45 33 30 44 45 29 35 45 58 62 58 64 79 59 52 42 39 36 47 35 35 38 41 48 45 51 50 43 52 52 48 44 44 37 47 47 59
93 93 86 75 70 73 74 71 83 97 61 31 31 44 48 46 52 58 60 50 45 58 80 50 49 31 35 45 37 36 32 40 49 45 45 62 62 61 62 57 49 47 42 41 39 56 50
92 92 78 75 68 69 71 72 61 45 40 30 29 44 54 55 54 61 53 42 56 74 70 56 44 41 42 42 37 32 36 37 38 53 51 56 46 55 51 46 47 44 42 43 51 67 65
82 87 80 74 70 68 68 71 65 38 33 33 30 48 48 58 70 62 58 65 78 81 47 54 57 43 45 43 41 42 48 51 60 57 82 65 58 49 46 52 45 45 72 90 77 77 59
83 81 76 73 71 70 69 66 68 42 36 37 34 53 55 53 57 53 63 70 74 64 55 47 49 43 50 46 40 39 48 65 51 58 92 74 54 63 57 57 59 49 71 87 62 81 77
78 76 76 75 72 72 68 67 64 45 39 38 47 58 55 48 50 56 72 92 77 71 46 51 46 50 47 42 41 44 52 56 57 57 57 76 79 55 59 59 57 58 78 52 72 78 84
76 74 75 75 76 71 65 65 63 46 36 40 52 57 47 42 50 67 84 78 64 54 57 48 51 42 47 43 45 45 52 50 56 50 49 48 78 55 60 57 56 62 52 60 87 63 83
75 72 71 74 75 73 69 61 56 43 34 39 57 74 45 41 61 75 87 68 60 51 56 58 63 47 46 45 42 42 57 52 48 49 49 48 64 70 57 70 72 62 69 66 72 83 90
80 69 69 74 76 74 71 68 58 50 33 47 63 64 40 47 76 85 79 58 54 54 50 52 51 52 51 46 47 48 61 61 48 47 54 53 66 87 57 56 53 58 60 64 83 75 80
82 77 69 74 75 73 71 68 62 56 47 52 57 64 44 46 79 81 59 57 60 54 53 53 51 49 43 45 48 45 68 60 54 62 65 61 61 80 66 60 57 63 60 59 62 72 77
82 82 71 73 77 76 73 68 58 50 52 48 72 69 66 66 63 55 54 53 64 55 54 48 48 45 43 43 42 45 64 61 57 61 59 62 60 60 67 50 57 66 59 64 66 90 76
82 84 84 82 82 82 78 70 61 47 46 49 72 69 57 73 56 52 51 47 48 55 51 48 49 48 46 42 40 40 56 69 64 66 59 64 70 62 54 55 52 49 48 60 79 68 70
82 83 81 81 81 80 79 77 69 49 45 42 63 64 68 61 50 48 49 46 47 47 47 53 51 43 41 44 39 38 40 43 52 72 64 63 60 61 64 51 56 63 57 52 48 62 67
80 82 79 81 81 80 78 78 74 66 50 61 60 55 66 82 58 60 51 45 50 50 49 48 50 52 49 52 52 50 54 52 48 67 74 73 72 76 74 66 60 44 48 46 47 46 44
77 79 77 78 81 83 79 77 77 74 68 68 66 68 77 70 60 55 46 49 51 51 57 50 48 52 54 52 51 50 55 55 50 51 55 63 67 77 88 70 57 36 34 33 44 41 41
74 74 73 73 73 77 76 76 74 79 78 72 71 70 82 78 62 54 48 50 47 46 49 48 56 58 56 55 59 55 59 48 62 71 70 68 69 78 85 90 60 34 35 38 35 36 36
73 72 71 74 76 72 73 74 77 75 80 79 77 72 77 83 72 39 50 48 60 58 59 50 55 57 55 68 62 54 57 47 64 79 69 68 70 75 81 83 70 36 35 32 31 46 43
74 76 72 70 76 75 75 75 77 76 78 86 85 75 75 87 76 52 66 63 55 64 73 54 60 68 60 74 71 71 70 38 53 68 88 86 83 91 91 89 74 47 36 36 42 48 43
76 73 74 70 72 77 73 70 73 77 76 79 90 88 76 93 87 58 48 60 63 66 77 63 71 74 79 79 80 75 67 54 48 57 82 84 93 94 87 88 89 41 40 40 48 45 39
90 76 73 73 75 78 80 74 72 79 91 94 98 83 84 82 84 74 65 56 53 52 72 68 70 68 74 84 83 73 66 65 59 57 59 66 63 76 69 66 46 43 42 39 44 46 42
Wind_Speed
17 17 18 17 17 17 17 17 17 17 20 21 21 20 21 22 24 22 21 18 20 28 22 27 26 17 7 7 5 1 4 9 17 5 6 2 5 4 8 6 5 4 2 5 5 10 8
19 18 18 18 18 17 17 17 18 16 18 19 19 19 18 16 18 22 21 20 19 16 12 7 10 17 11 14 3 10 8 17 11 6 9 3 6 6 5 5 5 5 6 4 8 7 6
20 19 19 18 18 18 17 16 17 16 15 16 16 15 16 13 13 14 16 17 14 16 15 18 23 31 20 9 12 11 19 4 5 8 4 13 10 3 4 8 6 8 7 7 8 4 3
20 19 19 19 18 18 17 16 15 15 13 13 13 12 12 12 10 10 10 11 11 11 13 11 15 25 7 3 4 12 11 7 9 13 13 2 3 7 6 7 5 4 4 4 4 4 2
20 20 20 20 20 19 18 16 15 14 13 13 13 12 9 9 10 8 10 14 18 13 10 9 11 11 5 5 1 1 14 6 3 1 4 2 6 5 6 6 5 1 2 4 1 1 1
20 21 21 22 22 21 19 18 16 13 12 12 12 11 9 7 7 7 6 15 15 18 4 5 17 6 6 5 4 5 5 7 2 2 3 7 6 4 4 5 5 6 5 3 4 2 0
20 21 22 23 23 23 23 20 18 14 11 11 11 12 9 6 6 7 13 7 7 7 17 8 2 5 1 5 4 11 9 5 0 3 4 5 8 2 2 2 4 5 6 7 2 2 1
21 22 23 24 25 25 25 24 21 17 13 9 10 10 10 6 11 5 7 6 2 1 5 7 6 4 8 5 8 13 14 1 4 4 4 7 4 3 8 4 7 5 10 3 1 1 2
19 21 22 24 26 27 27 26 23 20 14 10 8 10 8 4 3 7 9 5 2 2 4 6 3 4 5 9 4 8 6 3 8 10 8 7 3 6 0 10 13 7 7 3 3 1 2
17 19 21 24 26 28 29 30 26 22 14 7 6 10 7 0 1 1 3 4 3 2 5 11 8 5 5 2 8 4 7 0 5 7 5 7 8 7 8 8 5 6 4 4 4 3 2
16 18 20 24 25 28 31 33 30 24 17 5 4 11 5 2 1 2 2 3 3 2 5 9 8 6 4 5 3 9 7 9 6 4 5 1 6 8 9 4 4 3 2 3 2 4 5
14 17 21 24 25 27 31 33 35 28 15 6 5 11 3 3 3 2 2 2 1 6 2 6 5 4 5 7 3 0 5 7 2 11 10 5 3 4 3 3 5 3 3 5 5 4 3
13 16 19 22 26 28 30 34 36 28 12 7 6 12 9 2 1 2 1 3 5 6 3 3 2 4 5 4 6 5 4 6 4 5 5 6 4 3 2 2 3 2 5 3 4 3 5
13 15 18 21 24 28 30 33 37 30 10 5 4 7 9 7 2 2 2 5 9 5 1 2 2 1 3 3 2 3 3 5 7 5 3 4 5 5 8 3 2 3 5 4 5 3 4
13 15 18 20 23 27 30 33 36 32 14 3 1 2 3 6 3 3 5 6 6 4 3 4 3 2 1 0 2 3 3 3 2 5 4 4 2 1 3 3 3 3 1 3 5 2 3
13 15 17 20 23 26 30 32 36 33 19 3 1 2 4 4 2 3 5 5 3 3 5 3 2 0 2 1 1 2 2 3 3 1 1 2 4 1 1 3 1 1 1 3 3 2 3
15 15 17 19 22 26 29 31 34 34 21 4 0 3 7 5 2 5 4 3 3 1 3 2 4 4 4 2 3 2 1 2 3 3 4 2 4 3 2 5 5 1 1 2 3 4 3
16 15 16 17 21 24 28 31 32 34 24 5 2 3 9 5 4 3 2 2 2 2 2 1 2 4 3 5 5 4 3 3 4 2 2 1 3 3 3 2 2 4 5 6 4 4 3
15 15 14 16 20 23 27 30 32 31 23 6 2 2 6 3 4 2 1 3 3 0 2 2 2 3 1 2 3 3 4 5 6 4 2 4 1 2 7 5 3 3 4 3 3 3 5
14 14 13 15 18 21 24 28 30 28 18 4 3 3 4 5 1 5 2 1 1 2 2 2 2 1 1 2 2 3 2 0 2 2 4 3 1 5 6 3 3 3 4 5 5 3 3
14 13 12 13 15 19 22 25 28 26 15 3 3 1 3 2 4 3 3 2 1 0 0 1 2 1 1 1 2 3 4 3 3 4 2 4 2 2 4 6 4 6 7 9 11 10 8
15 11 10 12 13 16 20 23 27 24 11 7 2 2 3 0 1 2 2 0 2 1 1 2 1 3 1 0 1 1 2 3 4 2 4 1 2 1 4 4 4 6 10 12 13 12 15
13 10 12 13 13 14 16 19 23 27 13 7 4 2 3 3 3 3 2 1 1 2 1 2 2 3 3 0 2 2 2 2 2 6 5 4 2 2 4 4 7 8 8 13 5 6 13
13 13 13 13 14 14 15 17 17 18 19 5 5 1 3 2 2 1 0 1 1 1 1 1 1 1 0 5 4 2 2 3 1 2 2 3 4 3 3 4 2 5 1 3 9 8 10
17 15 13 12 13 11 12 16 16 16 14 9 6 2 2 1 1 3 3 1 2 1 1 2 2 1 2 2 3 3 3 2 2 4 4 3 3 1 2 2 8 3 1 1 2 4 3
21 19 18 17 14 12 11 12 13 13 12 8 6 7 1 4 3 2 3 3 2 1 4 1 1 3 1 1 2 1 3 4 2 2 5 2 4 3 1 2 5 2 1 1 1 2 6
24 23 21 20 17 14 13 13 12 11 12 8 4 3 1 1 3 2 3 4 3 2 2 0 1 2 3 1 1 3 3 2 2 4 3 3 1 5 3 3 7 5 1 3 2 2 3
28 26 25 23 20 17 16 14 12 12 12 9 6 7 0 3 4 2 3 3 2 2 3 3 2 1 2 0 1 3 2 3 1 4 6 6 6 4 4 4 9 4 1 1 3 2 1
32 29 28 26 21 20 19 17 13 12 13 9 5 6 4 2 4 3 6 7 5 4 4 3 4 4 5 2 2 0 2 2 2 3 2 2 6 5 9 6 4 5 4 3 4 5 5
Wind_Direction
23 20 21 18 17 12 10 7 1 11 14 13 24 27 24 42 42 37 35 44 50 71 77 96 109 121 85 62 48 122 46 128 162 295 288 338 174 176 142 145 82 84 20 42 27 59 62
23 22 20 17 15 13 9 8 3 12 19 23 30 36 36 48 31 38 43 54 60 59 59 80 89 96 86 62 62 91 109 130 177 299 304 290 219 203 101 113 88 118 93 51 38 48 44
24 20 18 16 14 12 8 7 5 7 23 23 36 46 45 32 30 29 42 53 78 58 67 85 114 85 73 127 96 99 124 101 333 261 302 295 254 233 115 86 131 125 79 43 18 28 57
24 18 17 15 13 11 9 5 4 3 18 19 18 19 14 25 17 358 17 18 2 8 79 97 89 67 84 81 52 119 147 261 268 258 248 283 275 114 106 124 69 68 59 87 314 1 286
22 19 16 15 14 12 9 3 5 4 8 12 15 14 25 10 13 14 7 15 20 62 84 122 99 78 36 31 333 286 206 220 193 222 99 276 77 85 50 94 65 76 139 102 146 326 194
21 18 16 13 12 10 9 4 359 1 2 3 7 9 5 13 350 330 357 338 30 42 46 67 31 61 7 335 6 26 237 209 218 313 16 41 54 77 41 74 159 175 131 107 142 249 183
20 18 14 12 10 7 6 5 359 354 355 357 360 355 5 6 354 310 324 341 14 3 52 103 74 109 300 349 53 27 351 313 44 24 90 35 69 60 338 267 130 151 101 113 132 295 122
20 17 14 12 8 5 3 2 0 355 348 350 355 356 346 5 27 35 30 75 120 272 40 48 64 37 28 34 35 352 13 21 50 71 77 43 63 293 301 351 92 108 111 79 77 339 71
11 10 12 11 11 9 7 1 358 356 352 347 351 355 341 327 37 64 77 87 15 2 67 1 53 42 322 33 36 338 22 12 88 70 66 95 267 320 108 42 76 47 97 126 144 89 12
10 6 5 7 7 8 9 7 359 354 351 355 6 2 354 251 175 70 45 8 2 31 71 332 352 3 350 93 16 337 10 78 53 106 76 59 341 57 44 65 34 73 345 70 69 92 173
9 4 6 7 7 7 8 10 3 356 356 21 29 11 25 73 76 85 283 330 3 76 63 299 316 304 316 100 177 344 2 33 64 69 99 148 12 25 39 351 10 150 52 79 68 95 72
6 0 5 4 6 7 7 10 9 5 9 45 40 15 50 92 42 60 303 329 15 45 11 337 317 335 31 16 39 90 20 45 94 60 61 85 59 56 1 346 52 131 74 35 44 71 34
3 1 0 4 5 6 6 8 9 8 19 35 57 39 52 77 123 360 75 30 38 79 274 346 305 7 57 46 12 32 34 39 71 79 14 2 28 351 10 342 14 49 55 16 9 5 216
352 357 0 3 5 3 6 7 8 8 17 21 76 37 42 53 83 111 25 52 67 251 239 284 303 50 69 21 16 38 53 22 14 63 106 111 348 2 333 54 356 37 132 151 182 188 247
339 349 357 1 4 2 4 6 6 8 8 35 48 33 30 12 97 116 72 53 176 245 335 329 331 315 37 90 128 84 75 123 43 23 120 123 5 275 42 356 52 335 32 165 103 53 46
339 345 353 355 0 2 3 5 5 6 2 7 327 318 1 9 75 104 73 117 106 359 347 349 312 3 99 9 83 90 136 325 138 104 130 156 85 326 307 10 300 159 201 56 4 107 289
340 340 347 351 356 0 2 4 4 3 3 3 328 54 359 8 66 53 96 110 120 34 32 34 10 14 36 14 30 77 72 346 20 332 338 102 113 241 120 202 191 112 114 65 120 130 156
335 339 341 349 353 358 360 2 5 2 7 19 20 37 354 3 51 43 65 67 196 164 271 309 2 44 34 23 22 48 102 41 7 24 53 39 116 169 201 201 174 181 182 150 125 223 199
325 332 340 345 350 355 358 360 3 6 3 354 74 254 2 352 76 25 208 53 41 291 83 40 84 28 6 57 93 54 57 329 15 47 62 339 341 49 344 349 349 243 221 193 110 84 210
317 325 338 343 348 354 358 1 2 3 356 13 71 27 334 36 102 113 96 49 93 335 335 332 171 222 275 162 135 150 126 196 60 70 2 40 261 175 191 209 131 220 224 199 157 140 211
310 315 330 342 348 355 359 2 4 3 2 8 43 256 194 341 351 69 95 351 88 97 268 326 305 267 97 137 156 154 142 172 216 188 168 123 218 4 278 263 248 225 215 207 206 204 193
301 300 319 336 347 357 1 2 5 9 17 65 86 68 10 246 282 15 50 96 48 20 162 178 153 345 245 76 29 175 20 190 200 207 192 177 251 105 284 308 237 250 243 231 234 229 243
288 289 306 318 331 346 359 4 10 12 28 65 35 61 104 286 331 62 266 200 100 86 6 54 33 4 294 81 310 237 183 245 170 161 195 157 139 66 267 341 323 290 240 221 207 206 216
267 276 290 304 316 328 341 351 5 15 26 44 34 9 80 264 120 170 230 5 317 55 215 170 95 156 286 328 307 269 315 285 273 292 168 167 150 151 261 351 320 243 231 234 207 238 215
256 256 268 283 296 309 326 330 344 354 9 28 31 70 98 255 194 141 137 194 310 257 281 257 11 181 311 343 13 348 354 4 32 39 19 12 129 274 195 223 293 339 28 337 217 3 263
254 258 264 269 276 290 300 304 315 331 338 3 28 9 64 125 239 133 155 167 183 229 338 279 351 339 30 108 100 220 245 229 241 350 7 62 74 139 157 207 255 283 264 324 273 291 347
254 255 252 258 270 280 281 289 304 314 309 322 315 36 110 342 273 138 174 177 153 138 175 294 258 355 17 64 171 200 241 171 222 195 157 122 156 211 236 270 283 265 224 323 153 219 336
250 252 251 254 259 265 268 277 293 287 288 297 284 302 323 156 267 242 178 158 125 141 163 206 65 5 54 332 224 268 211 238 193 175 180 170 156 195 174 225 263 195 52 220 203 245 178
247 246 247 250 253 260 265 273 279 264 259 262 237 261 270 230 246 268 260 246 230 209 149 201 181 166 194 142 220 322 292 320 207 258 130 235 193 181 191 216 210 192 173 164 189 216 206